DW8722 Weather Reports


Display with metric or nautical units.
time (UTC)temp
F
wind
direction
speed
MPH
gust
MPH
rain 1hr
in
rain 24hr
in
rain mn
in
humidity
%
barometer
mb
20230128174011 52 165 10.0 18.0 0.00 0.00 0.00 91 1017.9
20230128171846 51 154 7.0 16.0 0.00 0.00 0.00 91 1018.5
20230128170845 51 181 7.0 16.0 0.00 0.00 0.00 91 1018.7
20230128165830 51 159 7.0 12.0 0.00 0.00 0.00 91 1018.9
20230128163718 50 154 7.0 17.0 0.00 0.00 0.00 92 1019.1
20230128162712 50 169 9.0 17.0 0.00 0.00 0.00 92 1019.4
20230128161657 50 169 7.0 15.0 0.00 0.00 0.00 92 1019.5
20230128160711 50 169 7.0 13.0 0.00 0.00 0.00 92 1019.5
20230128155735 50 150 7.0 17.0 0.00 0.00 0.00 92 1019.4
20230128153612 49 155 9.0 16.0 0.00 0.00 0.00 91 1019.3
20230128152541 49 155 8.0 14.0 0.00 0.00 0.00 91 1019.3
20230128151520 49 178 7.0 14.0 0.00 0.00 0.00 91 1019.1
20230128150528 49 181 8.0 13.0 0.00 0.00 0.00 91 1019.3
20230128145532 49 136 6.0 10.0 0.00 0.00 0.00 90 1019.3
20230128144538 48 181 8.0 15.0 0.00 0.00 0.00 90 1019.4
20230128143547 48 175 7.0 15.0 0.00 0.00 0.00 89 1019.1
20230128142525 48 167 7.0 12.0 0.00 0.00 0.00 88 1019.1
20230128141519 48 159 7.0 18.0 0.00 0.00 0.00 87 1019.2
20230128140506 49 182 9.0 18.0 0.00 0.00 0.00 85 1019.3
20230128135512 48 182 9.0 15.0 0.00 0.00 0.00 84 1019.2
20230128134459 48 165 7.0 15.0 0.00 0.00 0.00 83 1019.1
20230128133507 48 169 6.0 11.0 0.00 0.00 0.00 83 1019.1
20230128132458 48 173 8.0 12.0 0.00 0.00 0.00 83 1019.0
20230128125255 46 184 6.0 10.0 0.00 0.00 0.00 84 1019.2
20230128124321 45 187 5.0 9.0 0.00 0.00 0.00 84 1019.2
20230128123335 45 180 4.0 9.0 0.00 0.00 0.00 83 1019.1
20230128122307 45 175 4.0 8.0 0.00 0.00 0.00 83 1019.1
20230128121249 44 172 3.0 7.0 0.00 0.00 0.00 82 1018.9
20230128120257 44 157 3.0 8.0 0.00 0.00 0.00 82 1018.9
20230128114216 44 162 4.0 9.0 0.00 0.00 0.00 81 1019.1
20230128113212 44 166 5.0 10.0 0.00 0.00 0.00 81 1019.2
20230128112158 44 169 5.0 10.0 0.00 0.00 0.00 80 1019.4
20230128111202 44 167 5.0 9.0 0.00 0.00 0.00 80 1019.5
20230128110137 44 172 5.0 10.0 0.00 0.00 0.00 79 1019.7
20230128105126 44 165 6.0 11.0 0.00 0.00 0.00 79 1019.7
20230128104148 44 180 7.0 12.0 0.00 0.00 0.00 79 1019.7
20230128101957 44 166 7.0 11.0 0.00 0.00 0.00 79 1019.9
20230128101009 43 160 7.0 13.0 0.00 0.00 0.00 78 1019.9
20230128100005 43 171 6.0 13.0 0.00 0.00 0.00 78 1019.9
20230128094946 43 169 6.0 10.0 0.00 0.00 0.00 77 1020.1
20230128093917 44 154 4.0 9.0 0.00 0.00 0.00 76 1020.1
20230128091715 44 162 6.0 11.0 0.00 0.00 0.00 74 1020.1
20230128090717 44 163 6.0 11.0 0.00 0.00 0.00 73 1020.1
20230128083501 44 176 6.0 10.0 0.00 0.00 0.00 74 1020.3
20230128082510 43 178 6.0 12.0 0.00 0.00 0.00 74 1020.5
20230128081524 43 186 7.0 12.0 0.00 0.00 0.00 74 1020.5
20230128080505 43 174 7.0 11.0 0.00 0.00 0.00 73 1020.5
20230128075529 43 167 7.0 15.0 0.00 0.00 0.00 72 1020.5
20230128073412 43 178 8.0 13.0 0.00 0.00 0.00 72 1020.4
20230128072432 43 173 7.0 12.0 0.00 0.00 0.00 73 1020.6
20230128071420 42 170 6.0 12.0 0.00 0.00 0.00 73 1020.7
20230128070440 42 186 7.0 12.0 0.00 0.00 0.00 72 1020.9
20230128064249 42 170 6.0 13.0 0.00 0.00 0.00 71 1021.1
20230128063221 42 187 6.0 10.0 0.00 0.00 0.00 70 1021.2
20230128062204 42 176 6.0 11.0 0.00 0.00 0.00 70 1021.3
20230128061206 42 180 6.0 11.0 0.00 0.00 0.00 69 1021.5
20230128060230 43 167 7.0 11.0 0.00 0.00 0.00 68 1021.6
20230128055241 43 162 6.0 10.0 0.00 0.00 0.00 68 1021.6
20230128054253 43 187 6.0 9.0 0.00 0.00 0.00 67 1021.5
20230128053318 43 176 6.0 11.0 0.00 0.00 0.00 66 1021.6
20230128052310 43 195 7.0 11.0 0.00 0.00 0.00 66 1021.7
20230128051318 43 182 7.0 10.0 0.00 0.00 0.00 65 1021.7
20230128050313 43 175 7.0 16.0 0.00 0.00 0.00 65 1021.9
20230128045313 43 173 7.0 16.0 0.00 0.00 0.00 64 1022.0
20230128044305 43 179 5.0 9.0 0.00 0.00 0.00 63 1022.1
20230128043254 44 178 5.0 9.0 0.00 0.00 0.00 63 1022.1
20230128041154 45 180 7.0 12.0 0.00 0.00 0.00 60 1022.1
20230128040148 45 172 7.0 12.0 0.00 0.00 0.00 60 1022.1
20230128035130 45 182 9.0 14.0 0.00 0.00 0.00 59 1022.1
20230128034155 46 170 9.0 16.0 0.00 0.00 0.00 58 1022.0
20230128033147 46 185 10.0 16.0 0.00 0.00 0.00 58 1022.0
20230128032114 46 194 9.0 16.0 0.00 0.00 0.00 58 1022.0
20230128031123 46 173 9.0 16.0 0.00 0.00 0.00 58 1021.9
20230128030105 47 182 8.0 16.0 0.00 0.00 0.00 59 1021.8
20230128025119 47 177 8.0 13.0 0.00 0.00 0.00 58 1021.9
20230128024123 47 174 8.0 13.0 0.00 0.00 0.00 57 1021.7
20230128023110 47 182 6.0 13.0 0.00 0.00 0.00 56 1021.7
20230128022111 48 173 7.0 12.0 0.00 0.00 0.00 55 1021.6
20230128015927 49 188 7.0 13.0 0.00 0.00 0.00 53 1021.6
20230128014951 49 178 7.0 14.0 0.00 0.00 0.00 52 1021.8
20230128013932 50 178 8.0 17.0 0.00 0.00 0.00 51 1021.6
20230128012936 50 172 10.0 17.0 0.00 0.00 0.00 51 1021.6
20230128011953 50 171 9.0 15.0 0.00 0.00 0.00 51 1021.6
20230128010943 50 165 9.0 15.0 0.00 0.00 0.00 51 1021.6
20230128005940 50 184 9.0 15.0 0.00 0.00 0.00 51 1021.5
20230128004932 51 161 8.0 13.0 0.00 0.00 0.00 50 1021.4
20230128003901 51 157 6.0 12.0 0.00 0.00 0.00 48 1021.2
20230128002851 52 166 8.0 13.0 0.00 0.00 0.00 47 1021.3
20230128001846 52 175 9.0 15.0 0.00 0.00 0.00 47 1021.3
20230128000902 53 183 10.0 17.0 0.00 0.00 0.00 46 1021.3
20230127234709 54 171 7.0 13.0 0.00 0.00 0.00 48 1021.5
20230127233651 55 194 9.0 22.0 0.00 0.00 0.00 47 1021.5
20230127232701 56 169 10.0 22.0 0.00 0.00 0.00 46 1021.3
20230127231633 57 162 11.0 18.0 0.00 0.00 0.00 45 1021.5
20230127230640 57 175 10.0 20.0 0.00 0.00 0.00 44 1021.6
20230127223357 59 175 13.0 21.0 0.00 0.00 0.00 41 1021.7
20230127222348 59 178 12.0 20.0 0.00 0.00 0.00 41 1021.7
20230127221400 60 200 11.0 20.0 0.00 0.00 0.00 40 1021.7
20230127220346 60 174 9.0 17.0 0.00 0.00 0.00 38 1021.7
20230127215328 60 174 11.0 17.0 0.00 0.00 0.00 39 1021.8
20230127213153 60 219 12.0 23.0 0.00 0.00 0.00 36 1021.8
20230127212123 60 200 12.0 21.0 0.00 0.00 0.00 37 1021.8
20230127211140 60 184 12.0 23.0 0.00 0.00 0.00 36 1021.9
20230127210144 61 170 12.0 23.0 0.00 0.00 0.00 38 1021.9
20230127205156 61 213 10.0 18.0 0.00 0.00 0.00 40 1022.0
20230127203027 60 225 10.0 20.0 0.00 0.00 0.00 40 1022.3
20230127202007 59 225 12.0 17.0 0.00 0.00 0.00 38 1022.4
20230127201026 59 235 10.0 17.0 0.00 0.00 0.00 41 1022.4
20230127200008 59 245 12.0 21.0 0.00 0.00 0.00 38 1022.6
20230127195011 59 218 12.0 21.0 0.00 0.00 0.00 42 1022.8
20230127194010 59 238 11.0 20.0 0.00 0.00 0.00 41 1022.9
20230127193007 59 193 12.0 19.0 0.00 0.00 0.00 39 1023.1
20230127192032 59 204 11.0 18.0 0.00 0.00 0.00 41 1023.5
20230127191050 58 283 12.0 23.0 0.00 0.00 0.00 42 1023.7
20230127190115 58 239 12.0 23.0 0.00 0.00 0.00 41 1023.9
20230127185104 58 234 12.0 22.0 0.00 0.00 0.00 42 1024.2
20230127184128 57 224 14.0 24.0 0.00 0.00 0.00 42 1024.5
20230127183126 57 245 13.0 24.0 0.00 0.00 0.00 43 1024.7
20230127182113 57 225 13.0 23.0 0.00 0.00 0.00 45 1024.9
20230127181048 57 221 14.0 19.0 0.00 0.00 0.00 45 1025.1
20230127174914 56 217 14.0 25.0 0.00 0.00 0.00 45 1025.3